Regional Weather Roundup
Issued by NWS

Home | Current Version | Previous Version | Graphics & Text | Print | Product List | Glossary On
Versions: 1 2 3 4 5 6 7 8 9 10 11 12 13 14 15 16 17 18 19 20 21 22 23 24 25 26 27 28 29 30 31 32 33 34 35 36 37 38 39 40 41 42 43 44 45 46 47 48 49 50
000
ASUS43 KMKX 281310
RWRWI

WISCONSIN REGIONAL WEATHER ROUNDUP
NATIONAL WEATHER SERVICE MILWAUKEE/SULLIVAN WI
800 AM CDT SAT MAR 28 2015

NOTE: "FAIR" INDICATES FEW OR NO CLOUDS BELOW 12,000 FEET WITH NO
SIGNIFICANT WEATHER AND/OR OBSTRUCTIONS TO VISIBILITY.

WIZ001-002-006>008-014>016-023>028-281400-
NORTHWEST WISCONSIN

CITY           SKY/WX    TMP DP  RH WIND       PRES   REMARKS
SUPERIOR ARPT  SUNNY     15  12  88 CALM      30.25R
ASHLAND        SUNNY     16  12  84 W3        30.26R
HAYWARD        SUNNY     15   9  76 CALM      30.23R
SIREN          SUNNY     15  11  84 CALM      30.24S
CUMBERLAND     SUNNY     21  18  86 CALM      30.23R
RICE LAKE      SUNNY     17  14  87 CALM      30.26R
CHETEK         SUNNY     17  14  90 CALM      30.26R
LADYSMITH      SUNNY     18  15  87 CALM      30.26R
EAU CLAIRE     SUNNY     19  15  84 CALM      30.26R
MENOMONIE      SUNNY     20  17  86 CALM      30.27R
NEW RICHMOND   CLEAR     21  15  76 CALM      30.25R
OSCEOLA        CLEAR     20  15  81 CALM      30.28R
$$

WIZ003>005-009-010-017-018-281400-
NORTH CENTRAL WISCONSIN

CITY           SKY/WX    TMP DP  RH WIND       PRES   REMARKS
MANITOWISH WTR SUNNY      9   6  87 CALM      30.21S
ARBOR VITAE    SUNNY     10   5  79 CALM      30.22R
WOODRUFF       SUNNY     10   5  79 CALM      30.22R
RHINELANDER    SUNNY     11   5  77 CALM      30.23R
EAGLE RIVER    SUNNY      4  -2  79 CALM      30.22R
LAND O LAKES   SUNNY      2  -3  81 CALM      30.23R
PHILLIPS       SUNNY     13   8  80 CALM      30.22R
TOMAHAWK       SUNNY      8   5  89 CALM      30.24R
MEDFORD        SUNNY     17  11  79 CALM      30.23R
MERRILL        SUNNY     12   8  83 CALM      30.25R
$$

WIZ029-030-035-036-043>047-281400-
CENTRAL WISCONSIN

CITY           SKY/WX    TMP DP  RH WIND       PRES   REMARKS
WAUSAU         SUNNY     15  10  80 E6        30.24R WCI   6
MOSINEE        SUNNY     14  10  85 VRB3      30.26R
MARSHFIELD     SUNNY     20  14  77 CALM      30.25R
STEVENS POINT  SUNNY     13  10  85 CALM      30.27R
WAUPACA        SUNNY     19  16  86 CALM      30.30R
WAUTOMA        SUNNY     14  10  84 CALM      30.30R
WISC RAPIDS    FAIR      17  10  74 CALM      30.28R
CAMP DOUGLAS   SUNNY     14  14 100 SE1       30.27R
$$

WIZ011>013-019>022-031-037>040-048>050-281400-
NORTHEAST WISCONSIN

CITY           SKY/WX    TMP DP  RH WIND       PRES   REMARKS
ANTIGO         SUNNY     16   9  73 S6        30.24R WCI   7
SHAWANO        SUNNY     16  11  83 CALM      30.31R
OCONTO         SUNNY     16  11  81 CALM      30.32R
STURGEON BAY   SUNNY     19   5  53 CALM      30.33R
GREEN BAY      SUNNY     21  14  74 CALM      30.31R
MANITOWOC      FAIR      24  17  74 NW3       30.32R
APPLETON       SUNNY     19  12  73 CALM      30.29R
CLINTONVILLE   SUNNY     19  14  79 CALM      30.30R
OSHKOSH        SUNNY     21  15  78 CALM      30.30R
$$

WIZ032>034-041-042-053>061-281400-
SOUTHWEST WISCONSIN

CITY           SKY/WX    TMP DP  RH WIND       PRES   REMARKS
LA CROSSE      SUNNY     23  17  78 E3        30.28R
SPARTA         SUNNY     14  11  87 CALM      30.29R
VIROQUA        SUNNY     21  12  68 SE5       30.25R WCI  15
BOSCOBEL       SUNNY     17  13  84 CALM      30.30R
PRAIRIE DU CHI SUNNY     17  11  78 CALM      30.30R
PLATTEVILLE    SUNNY     22  17  79 SE5       30.28R WCI  16
$$

WIZ056-057-062-063-064-067-068-281400-
SOUTH CENTRAL WISCONSIN

CITY           SKY/WX    TMP DP  RH WIND       PRES   REMARKS
REEDSBURG      SUNNY     19  13  76 CALM      30.28R
BARABOO/DELLS  SUNNY     20  14  78 CALM      30.27R
LONE ROCK      SUNNY     20  14  77 E3        30.30R
MINERAL POINT  SUNNY     19  14  79 SE5       30.26R WCI  13
MADISON        MOSUNNY   21  16  81 CALM      30.29R
MIDDLETON      SUNNY     22  16  78 CALM      30.29R
WATERTOWN      SUNNY     18  16  90 CALM      30.30R
MONROE         SUNNY     21  18  86 S6        30.27R WCI  14
JANESVILLE     SUNNY     19  18  93 CALM      30.30R
$$

WIZ051-052-058>065-066-070>072-281400-
SOUTHEAST WISCONSIN

CITY           SKY/WX    TMP DP  RH WIND       PRES   REMARKS
MILWAUKEE      MOSUNNY   20  12  71 NW6       30.31R WCI  12
WAUKESHA       SUNNY     18  14  86 W5        30.30R WCI  11
MILWAUKEE/TIMM SUNNY     18  12  79 CALM      30.31R
RACINE         SUNNY     21  15  78 CALM      30.32R
BURLINGTON     SUNNY     16  15  94 CALM      30.30R
KENOSHA        SUNNY     22  15  75 N3        30.30R
FOND DU LAC    SUNNY     19  14  81 CALM      30.30R
SHEBOYGAN      SUNNY     20  13  74 NW3       30.31R
WEST BEND      SUNNY     19  14  79 CALM      30.30R
JUNEAU         SUNNY     19  15  84 CALM      30.30R
$$

LSZ147-162-281400-
LAKE SUPERIOR

STATION/POSITION TIME  TEMP    WIND        PRES    WAVE
                       AIR SEA DIR/SP/G            HT/PER
                 (UTC) (F)     (DEG/KT/KT) (MB)    (FT/S)
DEVILS ISLAND    1300   25     170/  4/  4 1025.6R
PORT WING        1200   13     140/  2/  4 1024.4R
SAXON HARBOR     1200   12      CALM  /  5 1024.4R
$$

LMZ867-665-643>646-281400-
LAKE MICHIGAN

STATION/POSITION TIME  TEMP    WIND        PRES    WAVE
                       AIR SEA DIR/SP/G            HT/PER
                 (UTC) (F)     (DEG/KT/KT) (MB)    (FT/S)
NORTHPORT PIER   1222   17     310/  3/  4 1026.4R
SISTER BAY       1217             CALM       N/A
KEWAUNEE LAKESHO 1200   16      CALM  /  3 1024.9R
SHEBOYGAN LAKESH 1300   23     330/  5/  6 1027.7R
PORT WASHINGTON  1200   20     330/  5/  8 1026.4
MILWAUKEE LAKESH 1200   23     310/  4/  5   N/A
KENOSHA   LAKESH 1300   24      30/  1/  5 1026.1R
$$

TC  - TEMPERATURE IN CELSIUS
VSB - VISIBILITY IN STATUTE MILES
WCI - WIND CHILL INDEX
HX  - HEAT INDEX




USA.gov is the U.S. government's official web portal to all federal, state and local government web resources and services.